This is the latest recevied weather packets stored in our database for station/object K8GLX. If no packets are shown the sender has not sent any weather packets the latest 1 day(s).
| Time | Temp. | Humidity | Pressure | Rain* | Wind** | Luminosity | Snow |
|---|---|---|---|---|---|---|---|
| 1778097534 | 9.44° C | 66% | 1012.7 hPa | 0 mm | - | 170 W/m² | - |
| 1778096031 | 9.44° C | 66% | 1012.3 hPa | 0 mm | - | 293 W/m² | - |
| 1778095730 | 9.44° C | 66% | 1012.7 hPa | 0 mm | - | 305 W/m² | - |
| 1778094530 | 10° C | 65% | 1012.3 hPa | 0 mm | - | 754 W/m² | - |
| 1778093926 | 10° C | 65% | 1012.3 hPa | 0 mm | - | 329 W/m² | - |
| 1778093324 | 10° C | 65% | 1012.7 hPa | 0 mm | - | 917 W/m² | - |
| 1778093024 | 9.44° C | 68% | 1012.7 hPa | 0 mm | - | 649 W/m² | - |
| 1778092223 | 8.89° C | 69% | 1013 hPa | 0 mm | - | 525 W/m² | - |
| 1778091810 | 9.44° C | 69% | 1012.7 hPa | 0 mm | - | 896 W/m² | - |
| 1778091210 | 9.44° C | 72% | 1012.7 hPa | 0 mm | - | 523 W/m² | - |
| 1778090611 | 9.44° C | 71% | 1012.7 hPa | 0 mm | - | 689 W/m² | - |
| 1778090311 | 9.44° C | 73% | 1012.7 hPa | 0 mm | - | 846 W/m² | - |
| 1778090010 | 8.89° C | 75% | 1012.7 hPa | 0 mm | - | 797 W/m² | - |
| 1778088511 | 8.89° C | 77% | 1012.3 hPa | 0 mm | - | 427 W/m² | - |
| 1778086708 | 8.89° C | 80% | 1012.3 hPa | 0 mm | - | 694 W/m² | - |
| 1778086406 | 8.89° C | 80% | 1012 hPa | 0 mm | - | 858 W/m² | - |
| 1778084902 | 8.89° C | 82% | 1012.3 hPa | 0 mm | - | 829 W/m² | - |
| 1778084601 | 7.78° C | 83% | 1012.3 hPa | 0 mm | - | 696 W/m² | - |
| 1778084408 | 7.78° C | 83% | 1012.3 hPa | 0 mm | - | 587 W/m² | - |
| 1778083097 | 7.78° C | 84% | 1011.7 hPa | 0 mm | - | 639 W/m² | - |
| 1778082796 | 7.78° C | 85% | 1012 hPa | 0 mm | - | 326 W/m² | - |
| 1778082496 | 7.78° C | 85% | 1012 hPa | 0 mm | - | 288 W/m² | - |
| 1778081293 | 7.78° C | 85% | 1011.3 hPa | 0 mm | - | 397 W/m² | - |
| 1778080683 | 7.78° C | 85% | 1011.3 hPa | 0 mm | - | 540 W/m² | - |
| 1778077982 | 8.89° C | 87% | 1010.7 hPa | 0 mm | - | 295 W/m² | - |
* Rain latest hour (hover to see other rain measurements)
** Current wind speed in m/s (hover to see current wind gust speed)